Location: Medlow Airstrip Trail, Medlow Bath NSW 2780, Australia
(33.6682°S, 150.3233°E)
Time: 12:33:36
(UTC+10:00)

LightSail 2 - Visible Passes

Search period start: 18 August 2019 00:00
Search period end: 28 August 2019 00:00
Orbit: 702 x 731 km, 24.0° (Epoch: 16 August)

Date Brightness Start Highest point End Pass type
(mag) Time Alt. Az. Time Alt. Az. Time Alt. Az.
23 Aug 7.7 05:56:27 10° N 05:59:01 14° NNE 06:01:36 10° NE visible
24 Aug 7.8 05:01:21 10° NNE 05:02:14 10° NNE 05:03:09 10° NNE visible
25 Aug 7.3 05:46:44 10° NNW 05:50:21 19° NNE 05:54:00 10° ENE visible
26 Aug 7.4 04:50:28 10° NNW 04:53:32 16° NNE 04:56:38 10° NE visible
27 Aug 7.6 03:57:04 12° NNE 03:57:04 12° NNE 03:58:52 10° NE visible
27 Aug 6.9 05:37:34 10° NW 05:41:41 24° N 05:45:50 10° ENE visible
